Location: Unspecified
(52.4292°N, 19.3359°E)
Time: 23:05:31
(UTC+02:00)

Transit 2A Rocket - Pass Details

Date: 22 May 2024
Orbit: 583 x 910 km, 66.7° (Epoch: 12 June)

Event Time Altitude Azimuth Distance (km) Brightness Sun altitude
Rises 03:49:34 0° 175° (S) 2,975 7.7 -6.2°
Reaches altitude 10° 03:52:10 10° 161° (SSE) 2,121 7.1 -6.0°
Maximum altitude 03:55:55 23° 109° (ESE) 1,511 6.9 -5.5°
Drops below altitude 10° 03:59:57 10° 59° (ENE) 2,301 9.2 -5.1°
Sets 04:02:53 0° 46° (NE) 3,297 11.4 -4.8°
